Regional Weather Roundup
Issued by NWS

Home | Current Version | Previous Version | Graphics & Text | Print | Product List | Glossary On
Versions: 1 2 3 4 5 6 7 8 9 10 11 12 13 14 15 16 17 18 19 20 21 22 23 24 25 26 27 28 29 30 31 32 33 34 35 36 37 38 39 40 41 42 43 44 45 46 47 48 49 50
000
ASUS43 KBIS 210110
RWRND

NORTH DAKOTA REGIONAL WEATHER ROUNDUP
NATIONAL WEATHER SERVICE BISMARCK ND
800 PM CDT MON OCT 20 2014

NOTE: "FAIR" INDICATES FEW OR NO CLOUDS BELOW 12,000 FEET WITH NO
SIGNIFICANT WEATHER AND/OR OBSTRUCTIONS TO VISIBILITY.


NDZ001>003-009>011-017-210200-
NORTHWEST NORTH DAKOTA

CITY           SKY/WX    TMP DP  RH WIND       PRES   REMARKS
WILLISTON      CLEAR     55  41  59 CALM      29.82S
MINOT          CLEAR     57  36  45 SE7       29.90S
MINOT AFB      CLEAR     51  38  61 SE9       29.89S
$$

NDZ018>021-031>035-040>046-210200-
SOUTHWEST NORTH DAKOTA

CITY           SKY/WX    TMP DP  RH WIND       PRES   REMARKS
BISMARCK       CLEAR     54  33  45 E5        29.94S
DICKINSON      CLEAR     60  41  49 SE12      29.88S
GARRISON         N/A     55  39  54 SE5       29.91S
HETTINGER ARPT CLEAR     60  40  47 SE10      29.91F
$$

NDZ004>008-012>016-024-026-027-054-210200-
NORTHEAST NORTH DAKOTA

CITY           SKY/WX    TMP DP  RH WIND       PRES   REMARKS
GRAND FORKS    CLEAR     48  40  73 E6        30.03S
GRND FRKS AFB  CLEAR     48  42  78 SE6       30.03S
DEVILS LAKE    CLEAR     52  37  58 SE8       29.97S
$$

NDZ022-023-025-028>030-036>039-047>053-210200-
SOUTHEAST NORTH DAKOTA

CITY           SKY/WX    TMP DP  RH WIND       PRES   REMARKS
FARGO          CLEAR     49  40  71 E7        30.03S
JAMESTOWN      CLEAR     54  40  59 SE8       29.99S
$$



USA.gov is the U.S. government's official web portal to all federal, state and local government web resources and services.